User: anonymous   Login
Location: Oronoko Observatory
(41.9167°N, 86.3833°W)
Time: 16:34:03
(UTC-04:00)
Language:

PAYLOAD A - Orbit

View from above orbital plane
View from above orbital plane
View from above satellite
View from above satellite

Ground track
Ground track

The orbit data is extracted from the following two-line orbital elements,

1 27840U 03031A   17207.10732555 -.00000026 +00000-0 +54588-5 0  9997
2 27840 098.2064 202.9414 0098327 002.5083 357.6578 14.38884728738812
Epoch (UTC): 26 July 2017 02:34:32
Eccentricity: 0.0098327
inclination: 98.2064°
perigee height: 692 km
apogee height: 832 km
right ascension of ascending node: 202.9414°
argument of perigee: 2.5083°
revolutions per day: 14.38884728
mean anomaly at epoch: 357.6578°
orbit number at epoch: 73881

The dashed part of the orbit path shows where the satellite is in the earth's shadow,  

DLR